| time (UTC) | temp F | wind direction | speed MPH | gust MPH | rain 1hr in | rain 24hr in | rain mn in | humidity % | barometer mb |
| 20260510095503 | 68 | 45 | 2.0 | 2.0 | 0.00 | 0.00 | 0.00 | 27 | 1011.6 |
| 20260510095002 | 68 | 191 | 0.0 | 0.0 | 0.00 | 0.00 | 0.00 | 27 | 1011.7 |
| 20260510094457 | 67 | 165 | 1.0 | 1.0 | 0.00 | 0.00 | 0.00 | 28 | 1011.7 |
| 20260510093953 | 68 | 180 | 0.0 | 0.0 | 0.00 | 0.00 | 0.00 | 28 | 1011.5 |
| 20260510093449 | 69 | 184 | 1.0 | 2.0 | 0.00 | 0.00 | 0.00 | 26 | 1011.6 |
| 20260510092945 | 70 | 188 | 1.0 | 1.0 | 0.00 | 0.00 | 0.00 | 25 | 1011.5 |
| 20260510092443 | 69 | 168 | 0.0 | 1.0 | 0.00 | 0.00 | 0.00 | 25 | 1011.5 |
| 20260510091942 | 69 | 181 | 1.0 | 1.0 | 0.00 | 0.00 | 0.00 | 25 | 1011.7 |
| 20260510091440 | 69 | 190 | 0.0 | 1.0 | 0.00 | 0.00 | 0.00 | 25 | 1011.9 |
| 20260510090936 | 68 | 177 | 1.0 | 1.0 | 0.00 | 0.00 | 0.00 | 26 | 1011.4 |
| 20260510090433 | 69 | 177 | 0.0 | 1.0 | 0.00 | 0.00 | 0.00 | 27 | 1011.6 |
| 20260510085928 | 69 | 208 | 3.0 | 3.0 | 0.00 | 0.00 | 0.00 | 26 | 1011.7 |
| 20260510085424 | 70 | 205 | 4.0 | 5.0 | 0.00 | 0.00 | 0.00 | 25 | 1011.7 |
| 20260510084919 | 70 | 201 | 3.0 | 3.0 | 0.00 | 0.00 | 0.00 | 25 | 1011.9 |
| 20260510084417 | 69 | 177 | 0.0 | 0.0 | 0.00 | 0.00 | 0.00 | 26 | 1011.9 |
| 20260510083913 | 70 | 189 | 0.0 | 1.0 | 0.00 | 0.00 | 0.00 | 26 | 1011.7 |
| 20260510083410 | 70 | 150 | 1.0 | 1.0 | 0.00 | 0.00 | 0.00 | 25 | 1011.6 |
| 20260510082905 | 71 | 182 | 3.0 | 3.0 | 0.00 | 0.00 | 0.00 | 24 | 1011.8 |
| 20260510082404 | 71 | 193 | 4.0 | 5.0 | 0.00 | 0.00 | 0.00 | 24 | 1011.6 |
| 20260510081902 | 71 | 144 | 1.0 | 1.0 | 0.00 | 0.00 | 0.00 | 25 | 1011.8 |
| 20260510081358 | 71 | 104 | 1.0 | 2.0 | 0.00 | 0.00 | 0.00 | 25 | 1012.0 |
| 20260510080855 | 72 | 196 | 1.0 | 1.0 | 0.00 | 0.00 | 0.00 | 25 | 1011.9 |
| 20260510080348 | 72 | 196 | 7.0 | 7.0 | 0.00 | 0.00 | 0.00 | 24 | 1012.0 |
| 20260510075846 | 72 | 67 | 2.0 | 2.0 | 0.00 | 0.00 | 0.00 | 25 | 1011.9 |
| 20260510075344 | 71 | 130 | 1.0 | 2.0 | 0.00 | 0.00 | 0.00 | 25 | 1011.9 |
| 20260510074840 | 70 | 179 | 0.0 | 0.0 | 0.00 | 0.00 | 0.00 | 26 | 1011.9 |
| 20260510074337 | 70 | 181 | 1.0 | 2.0 | 0.00 | 0.00 | 0.00 | 26 | 1011.9 |
| 20260510073833 | 71 | 195 | 3.0 | 3.0 | 0.00 | 0.00 | 0.00 | 27 | 1012.1 |
| 20260510073329 | 73 | 174 | 0.0 | 1.0 | 0.00 | 0.00 | 0.00 | 27 | 1012.0 |
| 20260510072825 | 74 | 182 | 0.0 | 1.0 | 0.00 | 0.00 | 0.00 | 25 | 1011.8 |
| 20260510072323 | 75 | 118 | 1.0 | 2.0 | 0.00 | 0.00 | 0.00 | 24 | 1011.8 |
| 20260510071819 | 76 | 96 | 1.0 | 1.0 | 0.00 | 0.00 | 0.00 | 23 | 1011.8 |
| 20260510071315 | 78 | 117 | 1.0 | 1.0 | 0.00 | 0.00 | 0.00 | 22 | 1011.9 |
| 20260510070814 | 79 | 168 | 1.0 | 1.0 | 0.00 | 0.00 | 0.00 | 19 | 1012.0 |
| 20260510070310 | 78 | 124 | 1.0 | 1.0 | 0.00 | 0.00 | 0.00 | 20 | 1012.0 |
| 20260510065810 | 78 | 111 | 1.0 | 1.0 | 0.00 | 0.00 | 0.00 | 21 | 1011.7 |
| 20260510065307 | 79 | 93 | 1.0 | 1.0 | 0.00 | 0.00 | 0.00 | 20 | 1011.9 |
| 20260510064804 | 80 | 173 | 0.0 | 0.0 | 0.00 | 0.00 | 0.00 | 18 | 1011.8 |
| 20260510064302 | 80 | 177 | 0.0 | 0.0 | 0.00 | 0.00 | 0.00 | 18 | 1011.6 |
| 20260510063757 | 81 | 234 | 2.0 | 2.0 | 0.00 | 0.00 | 0.00 | 18 | 1011.6 |
| 20260510063254 | 81 | 221 | 2.0 | 2.0 | 0.00 | 0.00 | 0.00 | 18 | 1011.5 |
| 20260510062751 | 81 | 222 | 2.0 | 2.0 | 0.00 | 0.00 | 0.00 | 18 | 1011.5 |
| 20260510062247 | 81 | 244 | 3.0 | 3.0 | 0.00 | 0.00 | 0.00 | 18 | 1011.5 |
| 20260510061742 | 81 | 243 | 3.0 | 3.0 | 0.00 | 0.00 | 0.00 | 18 | 1011.4 |
| 20260510061240 | 81 | 295 | 5.0 | 5.0 | 0.00 | 0.00 | 0.00 | 19 | 1011.1 |
| 20260510060735 | 78 | 283 | 3.0 | 3.0 | 0.00 | 0.00 | 0.00 | 21 | 1011.2 |
| 20260510060233 | 77 | 239 | 4.0 | 5.0 | 0.00 | 0.00 | 0.00 | 23 | 1011.1 |
| 20260510055729 | 76 | 171 | 1.0 | 1.0 | 0.00 | 0.00 | 0.00 | 24 | 1011.1 |
| 20260510055227 | 75 | 176 | 1.0 | 1.0 | 0.00 | 0.00 | 0.00 | 24 | 1011.0 |
| 20260510054722 | 74 | 161 | 2.0 | 2.0 | 0.00 | 0.00 | 0.00 | 26 | 1011.0 |
| 20260510054218 | 74 | 219 | 3.0 | 3.0 | 0.00 | 0.00 | 0.00 | 28 | 1010.7 |
| 20260510053717 | 75 | 195 | 2.0 | 2.0 | 0.00 | 0.00 | 0.00 | 28 | 1010.6 |
| 20260510053214 | 78 | 188 | 0.0 | 0.0 | 0.00 | 0.00 | 0.00 | 22 | 1010.6 |
| 20260510052709 | 79 | 175 | 0.0 | 0.0 | 0.00 | 0.00 | 0.00 | 22 | 1010.5 |
| 20260510052206 | 78 | 153 | 0.0 | 0.0 | 0.00 | 0.00 | 0.00 | 22 | 1010.6 |
| 20260510051702 | 78 | 111 | 1.0 | 1.0 | 0.00 | 0.00 | 0.00 | 24 | 1010.3 |
| 20260510051159 | 79 | 100 | 1.0 | 2.0 | 0.00 | 0.00 | 0.00 | 24 | 1010.5 |
| 20260510050656 | 79 | 182 | 0.0 | 0.0 | 0.00 | 0.00 | 0.00 | 22 | 1010.5 |
| 20260510050153 | 78 | 170 | 0.0 | 1.0 | 0.00 | 0.00 | 0.00 | 21 | 1010.5 |
| 20260510045649 | 77 | 176 | 0.0 | 0.0 | 0.00 | 0.00 | 0.00 | 23 | 1010.6 |
| 20260510045146 | 78 | 177 | 0.0 | 0.0 | 0.00 | 0.00 | 0.00 | 25 | 1010.5 |
| 20260510044642 | 80 | 189 | 1.0 | 1.0 | 0.00 | 0.00 | 0.00 | 23 | 1009.9 |
| 20260510044140 | 82 | 185 | 0.0 | 0.0 | 0.00 | 0.00 | 0.00 | 19 | 1010.1 |
| 20260510043636 | 82 | 143 | 0.0 | 0.0 | 0.00 | 0.00 | 0.00 | 19 | 1010.1 |
| 20260510043132 | 82 | 165 | 0.0 | 0.0 | 0.00 | 0.00 | 0.00 | 18 | 1010.2 |
| 20260510042630 | 82 | 154 | 1.0 | 1.0 | 0.00 | 0.00 | 0.00 | 18 | 1009.9 |
| 20260510042126 | 80 | 198 | 0.0 | 0.0 | 0.00 | 0.00 | 0.00 | 19 | 1010.1 |
| 20260510041623 | 81 | 194 | 0.0 | 0.0 | 0.00 | 0.00 | 0.00 | 20 | 1009.9 |
| 20260510041120 | 81 | 65 | 1.0 | 1.0 | 0.00 | 0.00 | 0.00 | 20 | 1009.7 |
| 20260510040618 | 81 | 75 | 1.0 | 1.0 | 0.00 | 0.00 | 0.00 | 22 | 1009.8 |
| 20260510040114 | 84 | 31 | 1.0 | 1.0 | 0.00 | 0.00 | 0.00 | 19 | 1009.6 |
| 20260510035609 | 84 | 330 | 1.0 | 2.0 | 0.00 | 0.00 | 0.00 | 17 | 1009.6 |
| 20260510035104 | 84 | 350 | 1.0 | 1.0 | 0.00 | 0.00 | 0.00 | 18 | 1009.6 |
| 20260510034602 | 84 | 221 | 1.0 | 1.0 | 0.00 | 0.00 | 0.00 | 18 | 1009.5 |
| 20260510034059 | 84 | 353 | 1.0 | 1.0 | 0.00 | 0.00 | 0.00 | 19 | 1009.3 |
| 20260510033555 | 84 | 357 | 1.0 | 1.0 | 0.00 | 0.00 | 0.00 | 18 | 1009.5 |
| 20260510033053 | 83 | 221 | 0.0 | 0.0 | 0.00 | 0.00 | 0.00 | 19 | 1009.0 |
| 20260510032549 | 85 | 181 | 0.0 | 0.0 | 0.00 | 0.00 | 0.00 | 18 | 1009.2 |
| 20260510032044 | 85 | 145 | 0.0 | 0.0 | 0.00 | 0.00 | 0.00 | 16 | 1009.0 |
| 20260510031539 | 85 | 187 | 0.0 | 0.0 | 0.00 | 0.00 | 0.00 | 16 | 1009.3 |
| 20260510031035 | 86 | 168 | 0.0 | 0.0 | 0.00 | 0.00 | 0.00 | 16 | 1009.2 |
| 20260510030531 | 87 | 140 | 0.0 | 1.0 | 0.00 | 0.00 | 0.00 | 16 | 1009.0 |
| 20260510030029 | 87 | 270 | 1.0 | 1.0 | 0.00 | 0.00 | 0.00 | 15 | 1009.1 |
| 20260510025525 | 88 | 340 | 2.0 | 2.0 | 0.00 | 0.00 | 0.00 | 14 | 1009.0 |
| 20260510025023 | 88 | 338 | 2.0 | 2.0 | 0.00 | 0.00 | 0.00 | 14 | 1008.6 |
| 20260510024520 | 88 | 21 | 2.0 | 2.0 | 0.00 | 0.00 | 0.00 | 14 | 1008.6 |
| 20260510024015 | 89 | 21 | 2.0 | 2.0 | 0.00 | 0.00 | 0.00 | 14 | 1008.6 |
| 20260510023512 | 89 | 359 | 3.0 | 3.0 | 0.00 | 0.00 | 0.00 | 14 | 1008.6 |
| 20260510023009 | 89 | 355 | 3.0 | 3.0 | 0.00 | 0.00 | 0.00 | 13 | 1008.7 |
| 20260510022508 | 89 | 18 | 2.0 | 2.0 | 0.00 | 0.00 | 0.00 | 13 | 1008.7 |
| 20260510022008 | 90 | 358 | 3.0 | 3.0 | 0.00 | 0.00 | 0.00 | 13 | 1008.6 |
| 20260510021505 | 90 | 326 | 3.0 | 3.0 | 0.00 | 0.00 | 0.00 | 13 | 1008.6 |
| 20260510021002 | 91 | 337 | 4.0 | 5.0 | 0.00 | 0.00 | 0.00 | 13 | 1008.5 |
| 20260510020456 | 91 | 341 | 4.0 | 5.0 | 0.00 | 0.00 | 0.00 | 13 | 1008.4 |
| 20260510015952 | 91 | 345 | 3.0 | 3.0 | 0.00 | 0.00 | 0.00 | 13 | 1008.3 |
| 20260510015448 | 91 | 19 | 5.0 | 6.0 | 0.00 | 0.00 | 0.00 | 13 | 1008.4 |
| 20260510014944 | 91 | 350 | 3.0 | 3.0 | 0.00 | 0.00 | 0.00 | 13 | 1008.5 |
| 20260510014442 | 92 | 341 | 7.0 | 8.0 | 0.00 | 0.00 | 0.00 | 12 | 1008.3 |
| 20260510013938 | 92 | 345 | 3.0 | 5.0 | 0.00 | 0.00 | 0.00 | 12 | 1008.3 |
| 20260510013432 | 92 | 352 | 3.0 | 3.0 | 0.00 | 0.00 | 0.00 | 13 | 1008.3 |
| 20260510012928 | 92 | 345 | 6.0 | 7.0 | 0.00 | 0.00 | 0.00 | 12 | 1008.4 |
| 20260510012423 | 92 | 0 | 3.0 | 3.0 | 0.00 | 0.00 | 0.00 | 13 | 1008.2 |
| 20260510011918 | 92 | 305 | 3.0 | 3.0 | 0.00 | 0.00 | 0.00 | 14 | 1008.4 |
| 20260510011414 | 93 | 328 | 8.0 | 11.0 | 0.00 | 0.00 | 0.00 | 12 | 1008.3 |
| 20260510010910 | 93 | 19 | 6.0 | 7.0 | 0.00 | 0.00 | 0.00 | 12 | 1008.4 |
| 20260510010408 | 93 | 353 | 5.0 | 6.0 | 0.00 | 0.00 | 0.00 | 13 | 1008.2 |
| 20260510005904 | 93 | 350 | 5.0 | 8.0 | 0.00 | 0.00 | 0.00 | 13 | 1008.2 |
| 20260510005400 | 93 | 311 | 3.0 | 5.0 | 0.00 | 0.00 | 0.00 | 13 | 1008.2 |
| 20260510004858 | 93 | 2 | 9.0 | 11.0 | 0.00 | 0.00 | 0.00 | 12 | 1008.5 |
| 20260510004355 | 93 | 303 | 5.0 | 6.0 | 0.00 | 0.00 | 0.00 | 13 | 1008.2 |
| 20260510003853 | 94 | 331 | 6.0 | 8.0 | 0.00 | 0.00 | 0.00 | 12 | 1008.3 |
| 20260510003350 | 94 | 320 | 3.0 | 6.0 | 0.00 | 0.00 | 0.00 | 12 | 1008.2 |
| 20260510002848 | 93 | 328 | 5.0 | 6.0 | 0.00 | 0.00 | 0.00 | 12 | 1008.3 |
| 20260510002346 | 94 | 295 | 6.0 | 7.0 | 0.00 | 0.00 | 0.00 | 13 | 1008.3 |
| 20260510001842 | 94 | 254 | 7.0 | 9.0 | 0.00 | 0.00 | 0.00 | 12 | 1008.3 |
| 20260510001341 | 94 | 19 | 4.0 | 5.0 | 0.00 | 0.00 | 0.00 | 12 | 1008.5 |
| 20260510000836 | 94 | 6 | 6.0 | 7.0 | 0.00 | 0.00 | 0.00 | 13 | 1008.5 |
| 20260510000334 | 94 | 153 | 4.0 | 6.0 | 0.00 | 0.00 | 0.00 | 13 | 1008.5 |
| 20260509235830 | 94 | 344 | 4.0 | 5.0 | 0.00 | 0.00 | 0.00 | 13 | 1008.5 |
| 20260509235327 | 94 | 346 | 8.0 | 11.0 | 0.00 | 0.00 | 0.00 | 12 | 1008.3 |
| 20260509234823 | 95 | 358 | 9.0 | 9.0 | 0.00 | 0.00 | 0.00 | 12 | 1008.4 |
| 20260509234320 | 95 | 307 | 5.0 | 6.0 | 0.00 | 0.00 | 0.00 | 14 | 1008.5 |
| 20260509233818 | 95 | 329 | 7.0 | 7.0 | 0.00 | 0.00 | 0.00 | 13 | 1008.9 |
| 20260509233315 | 95 | 284 | 6.0 | 7.0 | 0.00 | 0.00 | 0.00 | 14 | 1008.7 |
| 20260509232811 | 95 | 311 | 7.0 | 8.0 | 0.00 | 0.00 | 0.00 | 12 | 1008.6 |
| 20260509232309 | 95 | 251 | 5.0 | 7.0 | 0.00 | 0.00 | 0.00 | 12 | 1008.6 |
| 20260509231805 | 95 | 309 | 5.0 | 6.0 | 0.00 | 0.00 | 0.00 | 13 | 1008.9 |
| 20260509231302 | 95 | 302 | 3.0 | 3.0 | 0.00 | 0.00 | 0.00 | 12 | 1008.6 |
| 20260509230800 | 95 | 320 | 7.0 | 9.0 | 0.00 | 0.00 | 0.00 | 13 | 1008.7 |
| 20260509230257 | 95 | 281 | 9.0 | 10.0 | 0.00 | 0.00 | 0.00 | 13 | 1008.7 |
| 20260509225751 | 95 | 213 | 9.0 | 10.0 | 0.00 | 0.00 | 0.00 | 14 | 1009.0 |
| 20260509225248 | 95 | 351 | 5.0 | 7.0 | 0.00 | 0.00 | 0.00 | 13 | 1009.0 |
| 20260509224743 | 95 | 309 | 1.0 | 2.0 | 0.00 | 0.00 | 0.00 | 12 | 1009.0 |
| 20260509224241 | 95 | 321 | 3.0 | 3.0 | 0.00 | 0.00 | 0.00 | 13 | 1009.1 |
| 20260509223738 | 95 | 349 | 4.0 | 5.0 | 0.00 | 0.00 | 0.00 | 13 | 1009.2 |
| 20260509223235 | 95 | 342 | 8.0 | 10.0 | 0.00 | 0.00 | 0.00 | 13 | 1009.3 |
| 20260509222731 | 95 | 244 | 3.0 | 3.0 | 0.00 | 0.00 | 0.00 | 14 | 1009.4 |
| 20260509222226 | 95 | 323 | 7.0 | 8.0 | 0.00 | 0.00 | 0.00 | 14 | 1009.4 |
| 20260509221722 | 95 | 315 | 6.0 | 7.0 | 0.00 | 0.00 | 0.00 | 13 | 1009.3 |
| 20260509221219 | 95 | 209 | 9.0 | 9.0 | 0.00 | 0.00 | 0.00 | 13 | 1009.7 |
| 20260509220715 | 95 | 288 | 6.0 | 6.0 | 0.00 | 0.00 | 0.00 | 13 | 1009.4 |
| 20260509220211 | 95 | 278 | 5.0 | 7.0 | 0.00 | 0.00 | 0.00 | 12 | 1009.5 |
| 20260509215707 | 96 | 324 | 6.0 | 9.0 | 0.00 | 0.00 | 0.00 | 14 | 1009.7 |
| 20260509215204 | 94 | 8 | 5.0 | 6.0 | 0.00 | 0.00 | 0.00 | 12 | 1009.5 |
| 20260509214701 | 94 | 339 | 7.0 | 8.0 | 0.00 | 0.00 | 0.00 | 13 | 1009.8 |
| 20260509214158 | 94 | 324 | 5.0 | 6.0 | 0.00 | 0.00 | 0.00 | 14 | 1009.9 |
| 20260509213655 | 95 | 18 | 6.0 | 9.0 | 0.00 | 0.00 | 0.00 | 13 | 1010.3 |
| 20260509213150 | 95 | 267 | 7.0 | 8.0 | 0.00 | 0.00 | 0.00 | 12 | 1010.1 |
| 20260509212648 | 94 | 183 | 6.0 | 7.0 | 0.00 | 0.00 | 0.00 | 14 | 1010.3 |
| 20260509212145 | 94 | 241 | 4.0 | 5.0 | 0.00 | 0.00 | 0.00 | 14 | 1010.3 |
| 20260509211641 | 94 | 245 | 7.0 | 8.0 | 0.00 | 0.00 | 0.00 | 12 | 1010.5 |
| 20260509211138 | 95 | 286 | 2.0 | 3.0 | 0.00 | 0.00 | 0.00 | 13 | 1010.4 |
| 20260509210635 | 94 | 276 | 8.0 | 9.0 | 0.00 | 0.00 | 0.00 | 13 | 1010.4 |
| 20260509210132 | 93 | 229 | 6.0 | 8.0 | 0.00 | 0.00 | 0.00 | 12 | 1010.5 |
| 20260509205627 | 93 | 279 | 3.0 | 5.0 | 0.00 | 0.00 | 0.00 | 15 | 1010.7 |
| 20260509205121 | 94 | 318 | 4.0 | 6.0 | 0.00 | 0.00 | 0.00 | 15 | 1010.8 |
| 20260509204618 | 94 | 236 | 7.0 | 8.0 | 0.00 | 0.00 | 0.00 | 14 | 1010.8 |
| 20260509204114 | 95 | 22 | 3.0 | 5.0 | 0.00 | 0.00 | 0.00 | 14 | 1011.0 |
| 20260509203610 | 93 | 337 | 5.0 | 6.0 | 0.00 | 0.00 | 0.00 | 14 | 1011.0 |
| 20260509203108 | 94 | 47 | 3.0 | 5.0 | 0.00 | 0.00 | 0.00 | 15 | 1010.9 |
| 20260509202603 | 94 | 356 | 5.0 | 6.0 | 0.00 | 0.00 | 0.00 | 15 | 1011.2 |
| 20260509202058 | 93 | 345 | 1.0 | 2.0 | 0.00 | 0.00 | 0.00 | 15 | 1011.4 |
| 20260509201553 | 93 | 278 | 9.0 | 11.0 | 0.00 | 0.00 | 0.00 | 15 | 1011.2 |
| 20260509201052 | 94 | 318 | 3.0 | 3.0 | 0.00 | 0.00 | 0.00 | 15 | 1011.6 |
| 20260509200550 | 93 | 282 | 6.0 | 7.0 | 0.00 | 0.00 | 0.00 | 14 | 1011.4 |
| 20260509200047 | 93 | 204 | 2.0 | 2.0 | 0.00 | 0.00 | 0.00 | 16 | 1011.5 |
| 20260509195543 | 93 | 162 | 8.0 | 10.0 | 0.00 | 0.00 | 0.00 | 16 | 1011.5 |
| 20260509195037 | 93 | 278 | 5.0 | 6.0 | 0.00 | 0.00 | 0.00 | 14 | 1011.5 |
| 20260509194532 | 93 | 351 | 3.0 | 6.0 | 0.00 | 0.00 | 0.00 | 14 | 1011.8 |
| 20260509194031 | 93 | 108 | 6.0 | 7.0 | 0.00 | 0.00 | 0.00 | 14 | 1011.6 |
| 20260509193531 | 92 | 241 | 5.0 | 7.0 | 0.00 | 0.00 | 0.00 | 14 | 1011.8 |
| 20260509193027 | 91 | 317 | 6.0 | 8.0 | 0.00 | 0.00 | 0.00 | 16 | 1011.8 |
| 20260509192524 | 91 | 233 | 2.0 | 2.0 | 0.00 | 0.00 | 0.00 | 15 | 1011.9 |
| 20260509192019 | 92 | 354 | 6.0 | 9.0 | 0.00 | 0.00 | 0.00 | 15 | 1011.9 |
| 20260509191514 | 91 | 301 | 4.0 | 5.0 | 0.00 | 0.00 | 0.00 | 17 | 1012.1 |
| 20260509191010 | 91 | 305 | 4.0 | 5.0 | 0.00 | 0.00 | 0.00 | 18 | 1012.0 |
| 20260509190507 | 91 | 297 | 3.0 | 3.0 | 0.00 | 0.00 | 0.00 | 16 | 1011.9 |
| 20260509190006 | 92 | 214 | 1.0 | 1.0 | 0.00 | 0.00 | 0.00 | 18 | 1012.0 |
| 20260509185502 | 91 | 91 | 1.0 | 2.0 | 0.00 | 0.00 | 0.00 | 16 | 1012.2 |
| 20260509184958 | 91 | 359 | 5.0 | 6.0 | 0.00 | 0.00 | 0.00 | 16 | 1012.2 |
| 20260509184457 | 89 | 331 | 3.0 | 3.0 | 0.00 | 0.00 | 0.00 | 18 | 1012.3 |
| 20260509183952 | 90 | 351 | 3.0 | 3.0 | 0.00 | 0.00 | 0.00 | 17 | 1012.4 |
| 20260509183447 | 90 | 328 | 3.0 | 3.0 | 0.00 | 0.00 | 0.00 | 21 | 1012.5 |
| 20260509182944 | 88 | 85 | 5.0 | 7.0 | 0.00 | 0.00 | 0.00 | 19 | 1012.5 |
| 20260509182440 | 88 | 322 | 5.0 | 6.0 | 0.00 | 0.00 | 0.00 | 18 | 1012.9 |
| 20260509181937 | 88 | 318 | 6.0 | 7.0 | 0.00 | 0.00 | 0.00 | 23 | 1012.8 |
| 20260509181435 | 89 | 300 | 7.0 | 8.0 | 0.00 | 0.00 | 0.00 | 19 | 1012.8 |
| 20260509180933 | 87 | 155 | 0.0 | 0.0 | 0.00 | 0.00 | 0.00 | 18 | 1012.8 |
| 20260509180428 | 87 | 214 | 4.0 | 5.0 | 0.00 | 0.00 | 0.00 | 19 | 1013.0 |
| 20260509175925 | 87 | 275 | 5.0 | 6.0 | 0.00 | 0.00 | 0.00 | 24 | 1013.3 |
| 20260509175421 | 87 | 185 | 4.0 | 5.0 | 0.00 | 0.00 | 0.00 | 19 | 1013.1 |
| 20260509174917 | 86 | 244 | 6.0 | 7.0 | 0.00 | 0.00 | 0.00 | 19 | 1013.1 |
| 20260509174414 | 85 | 236 | 3.0 | 3.0 | 0.00 | 0.00 | 0.00 | 21 | 1013.3 |
| 20260509173910 | 85 | 285 | 8.0 | 8.0 | 0.00 | 0.00 | 0.00 | 20 | 1013.1 |
| 20260509173409 | 87 | 279 | 5.0 | 7.0 | 0.00 | 0.00 | 0.00 | 20 | 1013.4 |
| 20260509172906 | 85 | 2 | 2.0 | 2.0 | 0.00 | 0.00 | 0.00 | 20 | 1013.2 |
| 20260509172403 | 85 | 249 | 4.0 | 6.0 | 0.00 | 0.00 | 0.00 | 22 | 1013.3 |
| 20260509171859 | 84 | 256 | 3.0 | 3.0 | 0.00 | 0.00 | 0.00 | 21 | 1013.3 |
| 20260509171355 | 85 | 230 | 4.0 | 5.0 | 0.00 | 0.00 | 0.00 | 22 | 1013.4 |
| 20260509170851 | 85 | 272 | 5.0 | 6.0 | 0.00 | 0.00 | 0.00 | 21 | 1013.3 |
| 20260509170347 | 84 | 243 | 4.0 | 5.0 | 0.00 | 0.00 | 0.00 | 21 | 1013.4 |
| 20260509165842 | 84 | 222 | 4.0 | 5.0 | 0.00 | 0.00 | 0.00 | 22 | 1013.4 |
| 20260509165336 | 84 | 43 | 4.0 | 5.0 | 0.00 | 0.00 | 0.00 | 21 | 1013.3 |
| 20260509164833 | 84 | 290 | 7.0 | 8.0 | 0.00 | 0.00 | 0.00 | 20 | 1013.5 |
| 20260509164329 | 84 | 326 | 5.0 | 6.0 | 0.00 | 0.00 | 0.00 | 22 | 1013.2 |
| 20260509163826 | 83 | 235 | 3.0 | 5.0 | 0.00 | 0.00 | 0.00 | 22 | 1013.1 |
| 20260509163322 | 83 | 236 | 4.0 | 5.0 | 0.00 | 0.00 | 0.00 | 23 | 1013.3 |
| 20260509162822 | 82 | 248 | 4.0 | 5.0 | 0.00 | 0.00 | 0.00 | 23 | 1013.5 |
| 20260509162314 | 83 | 193 | 5.0 | 6.0 | 0.00 | 0.00 | 0.00 | 22 | 1013.3 |
| 20260509161811 | 82 | 210 | 3.0 | 3.0 | 0.00 | 0.00 | 0.00 | 22 | 1013.5 |
| 20260509161307 | 83 | 229 | 2.0 | 2.0 | 0.00 | 0.00 | 0.00 | 24 | 1013.3 |
| 20260509160803 | 82 | 228 | 2.0 | 2.0 | 0.00 | 0.00 | 0.00 | 23 | 1013.4 |
| 20260509160259 | 84 | 178 | 0.0 | 1.0 | 0.00 | 0.00 | 0.00 | 23 | 1013.5 |
| 20260509155754 | 84 | 190 | 1.0 | 2.0 | 0.00 | 0.00 | 0.00 | 23 | 1013.4 |
| 20260509155251 | 84 | 142 | 1.0 | 2.0 | 0.00 | 0.00 | 0.00 | 23 | 1013.4 |
| 20260509154747 | 82 | 116 | 1.0 | 1.0 | 0.00 | 0.00 | 0.00 | 24 | 1013.3 |
| 20260509154244 | 82 | 186 | 0.0 | 0.0 | 0.00 | 0.00 | 0.00 | 24 | 1013.5 |
| 20260509153741 | 81 | 176 | 0.0 | 0.0 | 0.00 | 0.00 | 0.00 | 26 | 1013.5 |
| 20260509153237 | 80 | 17 | 1.0 | 1.0 | 0.00 | 0.00 | 0.00 | 24 | 1013.5 |
| 20260509152734 | 80 | 40 | 1.0 | 2.0 | 0.00 | 0.00 | 0.00 | 24 | 1013.5 |
| 20260509152230 | 80 | 162 | 0.0 | 0.0 | 0.00 | 0.00 | 0.00 | 24 | 1013.4 |
| 20260509151727 | 80 | 122 | 0.0 | 1.0 | 0.00 | 0.00 | 0.00 | 23 | 1013.5 |
| 20260509151224 | 79 | 174 | 0.0 | 1.0 | 0.00 | 0.00 | 0.00 | 27 | 1013.5 |
| 20260509150722 | 78 | 171 | 1.0 | 1.0 | 0.00 | 0.00 | 0.00 | 25 | 1013.4 |
| 20260509150220 | 77 | 159 | 1.0 | 1.0 | 0.00 | 0.00 | 0.00 | 26 | 1013.3 |
| 20260509145717 | 77 | 165 | 1.0 | 1.0 | 0.00 | 0.00 | 0.00 | 28 | 1013.4 |
| 20260509145211 | 77 | 122 | 0.0 | 1.0 | 0.00 | 0.00 | 0.00 | 27 | 1013.5 |
| 20260509144708 | 76 | 135 | 0.0 | 0.0 | 0.00 | 0.00 | 0.00 | 29 | 1013.4 |
| 20260509144205 | 75 | 137 | 0.0 | 1.0 | 0.00 | 0.00 | 0.00 | 29 | 1013.4 |
| 20260509143703 | 74 | 142 | 1.0 | 1.0 | 0.00 | 0.00 | 0.00 | 30 | 1013.3 |
| 20260509143200 | 73 | 155 | 1.0 | 1.0 | 0.00 | 0.00 | 0.00 | 30 | 1013.5 |
| 20260509142655 | 73 | 166 | 1.0 | 2.0 | 0.00 | 0.00 | 0.00 | 31 | 1013.4 |
| 20260509142152 | 72 | 153 | 1.0 | 1.0 | 0.00 | 0.00 | 0.00 | 31 | 1013.5 |
| 20260509141648 | 71 | 144 | 1.0 | 1.0 | 0.00 | 0.00 | 0.00 | 31 | 1013.3 |
| 20260509141144 | 70 | 168 | 0.0 | 0.0 | 0.00 | 0.00 | 0.00 | 32 | 1013.4 |
| 20260509140641 | 69 | 167 | 1.0 | 1.0 | 0.00 | 0.00 | 0.00 | 33 | 1013.4 |
| 20260509140139 | 68 | 170 | 1.0 | 1.0 | 0.00 | 0.00 | 0.00 | 33 | 1013.3 |
| 20260509135636 | 68 | 175 | 2.0 | 3.0 | 0.00 | 0.00 | 0.00 | 33 | 1013.4 |
| 20260509135134 | 68 | 143 | 1.0 | 1.0 | 0.00 | 0.00 | 0.00 | 33 | 1013.4 |
| 20260509134630 | 68 | 176 | 1.0 | 1.0 | 0.00 | 0.00 | 0.00 | 33 | 1013.2 |
| 20260509134128 | 67 | 169 | 0.0 | 1.0 | 0.00 | 0.00 | 0.00 | 33 | 1013.1 |
| 20260509133625 | 67 | 165 | 0.0 | 1.0 | 0.00 | 0.00 | 0.00 | 33 | 1013.0 |
| 20260509133122 | 66 | 157 | 0.0 | 1.0 | 0.00 | 0.00 | 0.00 | 34 | 1012.9 |
| 20260509132620 | 65 | 165 | 0.0 | 1.0 | 0.00 | 0.00 | 0.00 | 34 | 1012.8 |
| 20260509132119 | 65 | 138 | 1.0 | 2.0 | 0.00 | 0.00 | 0.00 | 35 | 1013.0 |
| 20260509131614 | 64 | 177 | 1.0 | 2.0 | 0.00 | 0.00 | 0.00 | 36 | 1012.9 |
| 20260509131112 | 64 | 161 | 0.0 | 1.0 | 0.00 | 0.00 | 0.00 | 36 | 1012.8 |
| 20260509130607 | 63 | 133 | 1.0 | 1.0 | 0.00 | 0.00 | 0.00 | 37 | 1013.0 |
| 20260509130104 | 62 | 174 | 0.0 | 1.0 | 0.00 | 0.00 | 0.00 | 37 | 1012.7 |
| 20260509125600 | 62 | 191 | 2.0 | 2.0 | 0.00 | 0.00 | 0.00 | 38 | 1012.5 |
| 20260509125057 | 61 | 176 | 1.0 | 1.0 | 0.00 | 0.00 | 0.00 | 39 | 1012.8 |
| 20260509124553 | 60 | 147 | 0.0 | 1.0 | 0.00 | 0.00 | 0.00 | 40 | 1012.5 |
| 20260509124051 | 60 | 191 | 1.0 | 1.0 | 0.00 | 0.00 | 0.00 | 40 | 1012.4 |
| 20260509123549 | 60 | 203 | 4.0 | 5.0 | 0.00 | 0.00 | 0.00 | 39 | 1012.2 |
| 20260509123045 | 61 | 194 | 4.0 | 5.0 | 0.00 | 0.00 | 0.00 | 39 | 1012.5 |
| 20260509122541 | 60 | 177 | 3.0 | 3.0 | 0.00 | 0.00 | 0.00 | 39 | 1012.3 |
| 20260509122039 | 61 | 181 | 4.0 | 5.0 | 0.00 | 0.00 | 0.00 | 39 | 1012.4 |
| 20260509121535 | 61 | 197 | 3.0 | 3.0 | 0.00 | 0.00 | 0.00 | 38 | 1012.4 |
| 20260509121033 | 62 | 210 | 3.0 | 3.0 | 0.00 | 0.00 | 0.00 | 38 | 1012.2 |
| 20260509120531 | 62 | 186 | 2.0 | 2.0 | 0.00 | 0.00 | 0.00 | 38 | 1012.3 |
| 20260509120029 | 62 | 182 | 0.0 | 1.0 | 0.00 | 0.00 | 0.00 | 37 | 1012.3 |
| 20260509115525 | 63 | 168 | 1.0 | 1.0 | 0.00 | 0.00 | 0.00 | 37 | 1012.1 |
| 20260509115023 | 63 | 209 | 1.0 | 1.0 | 0.00 | 0.00 | 0.00 | 37 | 1012.1 |
| 20260509114521 | 63 | 188 | 1.0 | 1.0 | 0.00 | 0.00 | 0.00 | 37 | 1011.8 |
| 20260509114020 | 63 | 185 | 1.0 | 1.0 | 0.00 | 0.00 | 0.00 | 36 | 1011.9 |
| 20260509113518 | 62 | 166 | 1.0 | 2.0 | 0.00 | 0.00 | 0.00 | 36 | 1011.9 |
| 20260509113015 | 63 | 182 | 0.0 | 0.0 | 0.00 | 0.00 | 0.00 | 37 | 1012.1 |
| 20260509112511 | 63 | 181 | 1.0 | 1.0 | 0.00 | 0.00 | 0.00 | 35 | 1012.1 |
| 20260509112008 | 63 | 175 | 0.0 | 0.0 | 0.00 | 0.00 | 0.00 | 36 | 1012.1 |
| 20260509111506 | 62 | 150 | 1.0 | 1.0 | 0.00 | 0.00 | 0.00 | 36 | 1012.0 |
| 20260509111003 | 62 | 182 | 0.0 | 0.0 | 0.00 | 0.00 | 0.00 | 37 | 1012.1 |
| 20260509110459 | 63 | 182 | 0.0 | 1.0 | 0.00 | 0.00 | 0.00 | 36 | 1012.1 |
| 20260509105956 | 63 | 189 | 0.0 | 0.0 | 0.00 | 0.00 | 0.00 | 36 | 1011.9 |
| 20260509105455 | 63 | 181 | 0.0 | 0.0 | 0.00 | 0.00 | 0.00 | 35 | 1011.9 |
| 20260509104952 | 64 | 142 | 0.0 | 1.0 | 0.00 | 0.00 | 0.00 | 34 | 1012.0 |
| 20260509104448 | 64 | 189 | 2.0 | 2.0 | 0.00 | 0.00 | 0.00 | 35 | 1011.8 |
| 20260509103946 | 64 | 187 | 1.0 | 2.0 | 0.00 | 0.00 | 0.00 | 34 | 1012.0 |
| 20260509103443 | 64 | 165 | 1.0 | 1.0 | 0.00 | 0.00 | 0.00 | 35 | 1011.9 |
| 20260509102941 | 64 | 205 | 1.0 | 2.0 | 0.00 | 0.00 | 0.00 | 34 | 1012.1 |
| 20260509102438 | 65 | 192 | 3.0 | 3.0 | 0.00 | 0.00 | 0.00 | 33 | 1012.0 |
| 20260509101934 | 65 | 173 | 3.0 | 3.0 | 0.00 | 0.00 | 0.00 | 32 | 1011.9 |
| 20260509101431 | 65 | 180 | 1.0 | 1.0 | 0.00 | 0.00 | 0.00 | 32 | 1012.1 |
| 20260509100928 | 66 | 168 | 0.0 | 1.0 | 0.00 | 0.00 | 0.00 | 32 | 1012.1 |
| 20260509100425 | 66 | 166 | 0.0 | 1.0 | 0.00 | 0.00 | 0.00 | 32 | 1012.1 |
| 20260509095922 | 66 | 188 | 2.0 | 2.0 | 0.00 | 0.00 | 0.00 | 32 | 1012.1 |